CAPE
0 0 0 0 0 0 0 0 0 0 0 0 0 0 0 0 1 59 1092 1068 1646 1619 1180 1063 1546 1558 1169 1141 1063 1038 1089 905 913 815 644 499 417 352 344 352 478 606 599 548 378 230 270 322 108
0 0 0 0 0 0 0 0 0 0 0 0 0 0 0 0 299 1097 1172 1215 1273 1635 1317 993 1169 1712 1510 1253 1135 1022 1078 1012 984 924 771 651 499 439 454 708 852 842 692 389 259 235 218 115 55
0 0 0 0 0 0 0 0 0 0 0 0 0 0 0 46 191 992 958 1264 1372 1529 1542 1136 983 1441 1273 1001 950 1064 955 658 868 982 819 708 667 708 767 763 730 658 592 516 359 136 190 21 15
0 0 0 0 0 0 0 0 0 0 0 0 0 0 9 15 127 818 877 1189 1320 1377 1509 1105 858 945 836 442 537 467 236 185 7 99 963 826 873 1017 797 564 594 543 624 451 158 121 4 0 14
0 0 0 0 0 0 0 0 0 0 0 0 0 0 0 439 550 618 867 913 1074 1359 1285 978 749 651 659 174 255 137 151 22 0 0 220 745 968 864 733 584 507 578 454 166 43 0 0 0 0
0 0 0 0 0 0 0 0 0 0 0 0 0 0 99 436 457 668 672 915 960 1423 1127 944 611 444 370 361 204 26 0 0 0 0 0 448 819 717 565 465 446 458 174 29 0 0 0 0 0
0 0 0 0 0 0 0 0 0 0 0 0 0 0 255 496 736 648 927 1043 1024 1047 1120 930 689 455 274 153 102 11 0 0 2 0 4 366 705 569 389 432 436 234 51 28 0 0 0 0 0
0 0 0 0 0 0 0 0 0 0 0 0 0 0 242 543 448 585 786 780 741 751 606 1116 801 531 234 140 67 0 0 0 0 0 0 482 500 427 395 420 268 67 17 5 0 0 0 0 0
0 0 0 0 0 0 0 0 0 0 0 0 0 0 13 453 367 437 621 522 513 550 538 728 1150 965 431 154 15 4 0 0 7 2 0 342 360 360 315 183 73 2 0 0 0 0 0 0 0
0 0 0 0 0 0 0 0 0 0 0 0 0 13 423 263 94 220 529 575 641 538 498 534 734 774 595 523 40 0 0 0 0 6 58 187 221 153 133 73 18 0 0 0 0 0 0 0 0
0 0 0 0 0 0 0 0 0 0 0 0 0 2 97 80 94 107 298 508 597 590 652 606 600 484 376 268 137 82 0 0 0 0 79 148 129 77 23 6 1 0 0 0 0 0 0 0 0
0 0 0 0 0 0 0 0 0 0 0 0 0 0 8 124 131 41 102 469 502 526 650 751 626 410 313 141 47 71 27 0 2 61 68 47 25 17 2 2 0 0 0 0 0 0 0 0 0
0 0 0 0 0 0 0 0 0 0 0 0 0 0 0 0 7 0 2 354 506 511 444 442 284 140 25 3 5 17 37 34 3 52 44 1 6 1 0 0 0 0 0 0 0 0 0 0 0
0 0 0 0 0 0 0 0 0 0 0 0 0 0 0 0 0 0 23 276 465 509 399 306 112 2 0 0 0 12 21 21 23 18 4 0 3 13 0 0 0 0 0 0 0 0 0 0 0
0 0 0 0 0 0 0 0 0 0 0 0 0 0 0 0 0 0 0 146 316 377 256 197 43 1 0 0 0 0 1 2 3 2 1 0 6 11 0 0 0 0 0 0 0 0 0 0 0
0 0 0 0 0 0 0 0 0 0 0 0 0 0 0 0 0 0 0 0 119 187 131 161 42 1 0 0 1 0 0 0 2 3 2 1 1 4 0 0 0 0 0 0 0 1 0 0 0
0 0 0 0 0 0 0 0 0 0 0 0 0 0 0 0 0 0 0 0 13 50 37 14 28 4 0 0 0 1 1 2 2 3 3 0 0 19 2 0 0 0 0 0 1 1 0 0 0
0 0 0 0 0 0 0 0 0 0 0 0 0 0 0 0 0 0 0 0 0 1 0 0 3 13 7 0 0 0 2 1 0 2 0 0 1 7 20 22 22 25 18 0 0 1 0 0 0
0 0 0 0 0 0 0 0 0 0 0 0 0 0 0 0 1 0 0 0 0 0 0 0 2 1 4 5 1 0 1 2 2 0 0 0 10 2 12 19 24 74 47 0 0 0 0 0 0
0 0 0 0 0 0 0 0 0 0 0 0 0 0 0 0 1 6 0 0 0 0 0 0 0 2 2 2 2 2 2 2 2 0 0 0 0 0 4 3 7 19 28 10 0 0 0 0 0
0 0 0 0 0 0 0 0 0 0 0 0 0 0 0 0 6 7 0 0 0 0 0 0 0 2 2 3 3 2 3 3 5 2 0 0 0 0 0 0 3 1 4 0 0 0 0 0 0
0 0 0 2 0 0 0 0 0 0 0 0 0 0 0 0 10 19 5 0 0 0 0 0 0 0 1 5 2 1 2 2 2 0 0 0 1 0 0 0 0 0 2 9 2 0 0 0 0
0 0 0 0 3 2 0 0 0 0 0 0 0 0 0 0 0 23 18 0 0 0 0 0 0 1 3 6 3 1 1 1 1 1 0 0 0 0 0 0 0 7 13 2 10 4 19 18 0
1 3 0 0 3 0 0 0 0 0 0 0 0 0 0 0 0 38 42 0 0 0 0 0 0 1 1 3 5 1 0 0 2 1 0 0 0 0 0 0 0 0 14 28 10 37 62 45 39
0 2 0 0 0 0 0 0 0 0 0 0 0 0 0 0 0 29 72 66 0 0 0 0 0 0 1 1 4 4 0 0 0 0 0 0 0 0 0 0 0 2 11 34 58 57 63 92 68
0 1 0 0 0 0 0 0 0 0 0 0 0 0 0 0 0 29 119 125 49 0 0 0 0 0 0 2 3 2 5 0 0 0 0 0 0 0 0 0 0 0 14 32 71 89 90 91 63
0 0 0 0 0 0 0 0 0 0 0 0 0 0 0 0 0 76 158 149 99 0 0 0 0 0 0 1 1 1 1 0 0 0 0 0 0 0 0 0 0 0 0 11 25 58 66 60 37
0 0 0 0 0 0 0 0 2 0 0 0 0 0 0 0 0 10 168 181 126 17 0 0 0 0 0 0 0 2 0 0 1 0 0 0 0 0 0 0 0 0 0 0 0 11 23 44 27
0 0 1 2 0 16 0 1 0 0 0 0 0 0 0 0 0 7 9 201 162 63 0 0 0 0 0 0 0 0 3 4 8 1 1 0 2 0 0 0 0 0 0 0 0 0 0 0 2
0 0 0 0 0 0 1 0 1 0 0 0 0 0 0 0 0 0 0 177 229 169 44 15 0 0 0 0 0 0 0 0 1 1 0 4 1 1 0 0 0 0 0 0 0 0 0 0 0
CIN
-0 -0 -0 -0 -0 -0 -0 -0 -0 -0 -0 -0 -0 -0 -0 -0 -2 -41 -87 -85 -62 -86 -160 -155 -76 -77 -133 -127 -118 -80 -31 -40 -39 -59 -79 -93 -114 -101 -77 -53 -34 -20 -10 -1 -5 -1 -1 -5 -32
-0 -0 -0 -0 -0 -0 -0 -0 -0 -0 -0 -0 -0 -0 -0 -0 -59 -78 -102 -134 -91 -87 -128 -139 -103 -20 -51 -94 -98 -80 -43 -33 -27 -20 -36 -46 -78 -87 -57 -12 -1 -0 -0 -5 -32 -5 -2 -18 -50
-0 -0 -0 -0 -0 -0 -0 -0 -0 -0 -0 -0 -0 -0 -0 -73 -74 -103 -148 -143 -115 -81 -100 -121 -103 -37 -84 -109 -110 -52 -45 -6 -4 -6 -22 -27 -27 -28 -20 -4 -1 -1 -0 -0 -3 -17 -6 -113 -33
-0 -0 -0 -0 -0 -0 -0 -0 -0 -0 -0 -0 -0 -0 -69 -152 -80 -97 -143 -137 -124 -87 -75 -114 -113 -88 -99 -184 -165 -139 -119 -133 -95 -6 -2 -8 -4 -0 -2 -7 -2 -1 -1 -1 -27 -28 -127 -0 -150
-0 -0 -0 -0 -0 -0 -0 -0 -0 -0 -0 -0 -0 -0 -7 -92 -122 -140 -148 -135 -120 -72 -90 -104 -116 -126 -107 -188 -144 -182 -129 -104 -0 -0 -5 -2 -1 -2 -2 -3 -3 -0 -1 -20 -74 -12 -0 -0 -0
-0 -0 -0 -0 -0 -0 -0 -0 -0 -0 -0 -0 -0 -0 -77 -122 -126 -157 -182 -174 -131 -50 -89 -104 -128 -147 -156 -120 -118 -192 -0 -0 -0 -0 -0 -2 -4 -5 -6 -5 -3 -0 -39 -95 -27 -0 -0 -0 -0
-0 -0 -0 -0 -0 -0 -0 -0 -0 -0 -0 -0 -0 -0 -83 -93 -128 -193 -206 -197 -158 -83 -26 -92 -102 -115 -142 -158 -194 -225 -0 -0 -0 -0 -128 -2 -3 -8 -19 -7 -0 -23 -85 -128 -0 -0 -0 -0 -0
-0 -0 -0 -0 -0 -0 -0 -0 -0 -0 -0 -0 -0 -0 -83 -105 -159 -198 -217 -204 -184 -141 -91 -10 -45 -69 -116 -149 -176 -0 -0 -0 -0 -0 -0 -0 -6 -10 -5 -6 -15 -58 -123 -160 -0 -0 -0 -0 -0
-0 -0 -0 -0 -0 -0 -0 -0 -0 -0 -0 -0 -0 -0 -27 -148 -203 -204 -209 -235 -214 -161 -104 -32 -4 -6 -50 -142 -208 -216 -0 -0 -39 -57 -0 -6 -6 -2 -2 -12 -59 -7 -0 -0 -0 -0 -0 -0 -0
-0 -0 -0 -0 -0 -0 -0 -0 -0 -0 -0 -0 -0 -56 -115 -147 -159 -137 -150 -192 -188 -159 -107 -75 -15 -4 -4 -7 -107 -0 -0 -0 -0 -62 -0 -12 -18 -9 -12 -19 -55 -0 -0 -0 -0 -0 -0 -0 -0
-0 -0 -0 -0 -0 -0 -0 -0 -0 -0 -0 -0 -0 -27 -97 -130 -113 -125 -142 -167 -151 -146 -97 -74 -34 -15 -15 -14 -65 -50 -0 -0 -0 -0 -0 -15 -15 -7 -54 -11 -0 -0 -0 -0 -0 -0 -0 -0 -0
-0 -0 -0 -0 -0 -0 -0 -0 -0 -0 -0 -0 -0 -0 -92 -77 -84 -123 -104 -172 -188 -154 -104 -62 -47 -38 -18 -18 -51 -43 -62 -1 -43 -13 -6 -34 -28 -31 -68 -62 -0 -0 -0 -0 -0 -0 -0 -0 -0
-0 -0 -0 -0 -0 -0 -0 -0 -0 -0 -0 -0 -0 -0 -0 -0 -78 -0 -103 -175 -206 -169 -139 -121 -117 -111 -53 -104 -34 -38 -28 -22 -19 -36 -40 -25 -37 -34 -0 -52 -0 -0 -0 -0 -0 -0 -0 -0 -0
-0 -0 -0 -0 -0 -0 -0 -0 -0 -0 -0 -0 -0 -0 -0 -0 -0 -0 -102 -162 -187 -196 -153 -130 -155 -50 -0 -0 -0 -32 -9 -17 -35 -56 -88 -0 -39 -34 -0 -0 -0 -0 -0 -0 -0 -0 -0 -0 -0
-0 -0 -0 -0 -0 -0 -0 -0 -0 -0 -0 -0 -0 -0 -0 -0 -0 -0 -0 -168 -199 -208 -200 -160 -209 -41 -0 -0 -0 -0 -7 -3 -10 -13 -0 -0 -38 -6 -0 -0 -0 -0 -0 -0 -0 -0 -0 -0 -0
-0 -0 -0 -0 -0 -0 -0 -0 -0 -0 -0 -0 -0 -0 -0 -0 -0 -0 -0 -0 -263 -253 -234 -171 -176 -17 -0 -0 -0 -1 -0 -5 -0 -0 -0 -6 -28 -15 -0 -0 -0 -0 -0 -0 -0 -54 -0 -0 -0
-0 -0 -0 -0 -0 -0 -0 -0 -0 -0 -0 -0 -0 -0 -0 -0 -0 -0 -0 -0 -154 -306 -304 -306 -221 -8 -0 -0 -0 -0 -0 -0 -0 -0 -0 -0 -0 -9 -8 -0 -0 -0 -0 -0 -73 -79 -0 -0 -0
-0 -0 -0 -0 -0 -0 -0 -0 -0 -0 -0 -0 -0 -0 -0 -0 -0 -0 -0 -0 -0 -50 -0 -0 -6 -4 -0 -0 -0 -0 -0 -0 -0 -0 -0 -0 -2 -6 -16 -32 -24 -65 -68 -0 -16 -38 -0 -0 -0
-0 -0 -0 -0 -0 -0 -0 -0 -0 -0 -0 -0 -0 -0 -0 -0 -22 -0 -0 -0 -0 -0 -0 -0 -0 -6 -1 -11 -0 -0 -0 -0 -0 -0 -0 -2 -11 -21 -21 -43 -45 -44 -40 -0 -0 -0 -0 -0 -0
-0 -0 -0 -0 -0 -0 -0 -0 -0 -0 -0 -0 -0 -0 -0 -0 -28 -115 -0 -0 -0 -0 -0 -0 -0 -5 -0 -0 -0 -0 -0 -0 -0 -0 -0 -0 -0 -0 -23 -28 -49 -52 -24 -34 -0 -0 -0 -0 -0
-0 -0 -0 -0 -0 -0 -0 -0 -0 -0 -0 -0 -0 -0 -0 -0 -97 -216 -0 -0 -0 -0 -0 -0 -0 -0 -0 -0 -1 -0 -0 -0 -0 -0 -0 -0 -0 -0 -0 -0 -59 -55 -30 -0 -0 -0 -0 -0 -0
-0 -0 -0 -1 -1 -0 -0 -0 -0 -0 -0 -0 -0 -0 -0 -0 -94 -190 -206 -0 -0 -0 -0 -0 -0 -0 -0 -0 -2 -0 -0 -0 -0 -0 -0 -0 -52 -0 -0 -0 -0 -0 -67 -60 -20 -0 -0 -0 -0
-0 -0 -0 -0 -0 -0 -0 -0 -0 -0 -0 -0 -0 -0 -0 -0 -0 -183 -210 -0 -0 -0 -0 -0 -0 -12 -16 -4 -0 -7 -9 -0 -0 -0 -0 -0 -0 -0 -0 -14 -15 -33 -47 -34 -55 -61 -97 -102 -7
-13 -0 -0 -0 -0 -0 -0 -0 -0 -0 -0 -0 -0 -0 -0 -0 -0 -164 -197 -0 -0 -0 -0 -0 -0 -2 -13 -4 -0 -0 -0 -0 -0 -0 -0 -0 -0 -0 -0 -0 -12 -0 -46 -45 -71 -63 -60 -83 -83
-0 -0 -1 -0 -0 -0 -0 -0 -0 -0 -0 -0 -0 -0 -0 -0 -0 -167 -193 -256 -0 -0 -0 -0 -0 -0 -3 -11 -1 -1 -0 -0 -0 -0 -0 -0 -0 -0 -0 -0 -0 -22 -42 -34 -45 -50 -41 -65 -80
-0 -0 -0 -0 -0 -0 -0 -0 -0 -0 -0 -0 -0 -0 -0 -0 -0 -125 -165 -193 -267 -0 -0 -0 -0 -0 -0 -3 -2 -3 -1 -2 -1 -5 -0 -0 -0 -0 -0 -0 -0 -0 -50 -46 -52 -42 -42 -50 -56
-0 -0 -0 -0 -0 -0 -0 -0 -0 -0 -0 -0 -0 -0 -0 -0 -0 -100 -120 -161 -221 -26 -0 -0 -0 -0 -0 -3 -2 -4 -4 -7 -0 -26 -4 -0 -0 -0 -0 -0 -0 -0 -4 -71 -70 -61 -56 -53 -78
-0 -0 -1 -0 -0 -0 -0 -3 -8 -0 -0 -0 -0 -0 -0 -0 -0 -90 -87 -105 -161 -294 -0 -0 -0 -0 -0 -0 -0 -1 -0 -0 -3 -8 -31 -2 -0 -0 -0 -0 -0 -0 -0 -0 -25 -86 -85 -63 -60
-0 -0 -0 -0 -0 -5 -0 -5 -0 -0 -0 -0 -0 -0 -0 -0 -6 -39 -62 -90 -130 -264 -0 -0 -0 -0 -0 -0 -0 -0 -5 -10 -12 -17 -30 -27 -27 -0 -0 -0 -0 -0 -0 -0 -0 -0 -0 -33 -71
-0 -0 -0 -0 -0 -0 -0 -0 -8 -0 -0 -0 -0 -0 -0 -0 -0 -0 -2 -56 -95 -150 -256 -335 -0 -0 -0 -0 -0 -0 -0 -0 -4 -6 -14 -25 -23 -35 -0 -0 -0 -0 -0 -0 -0 -0 -0 -0 -0
Wind_Speed
11 11 16 18 18 15 12 15 14 15 16 18 19 22 22 22 20 18 10 15 13 14 14 13 9 5 5 4 4 4 2 2 2 2 3 3 4 4 4 6 7 7 7 7 7 8 9 11 13
11 13 15 17 16 15 15 16 13 15 15 17 19 19 18 16 15 11 14 16 17 14 13 11 8 5 4 5 5 4 3 4 3 4 5 4 4 5 4 7 7 6 7 8 9 10 11 13 14
13 12 15 14 13 8 12 21 15 13 14 17 20 18 17 13 13 11 11 14 17 13 12 10 6 4 4 2 2 3 4 6 6 8 8 7 6 5 6 7 7 7 8 8 9 11 12 15 14
12 15 15 13 9 2 4 17 11 14 15 14 15 18 17 15 13 12 12 14 17 15 13 8 6 5 4 1 2 4 4 5 19 23 11 10 9 7 7 7 8 9 9 8 10 11 13 15 11
12 14 12 12 7 4 6 14 12 15 17 12 12 16 18 15 12 13 15 17 18 14 11 8 7 5 4 3 2 2 8 12 15 32 35 12 10 9 8 8 9 9 8 7 8 10 12 11 10
12 13 14 12 7 12 23 8 9 12 14 16 19 21 15 10 11 12 15 19 19 18 11 8 6 4 3 2 1 7 11 14 10 10 31 32 13 11 9 8 9 8 8 6 7 10 11 9 9
9 13 12 10 12 19 25 9 9 12 15 17 17 21 11 9 9 11 14 19 18 17 15 8 5 3 2 1 5 7 8 9 10 19 27 22 13 13 10 9 9 7 7 7 9 10 9 7 7
11 12 8 10 12 14 24 14 10 10 12 16 17 15 9 5 7 11 15 18 18 15 13 10 5 3 2 2 5 7 8 6 18 25 27 21 14 11 9 10 10 7 7 8 8 9 8 7 5
16 12 12 9 7 6 28 16 12 12 14 16 17 10 7 6 7 12 15 16 16 16 13 9 7 6 5 5 3 3 5 8 19 17 36 21 15 11 11 9 8 7 8 9 8 8 9 7 3
14 17 13 15 11 17 32 27 14 13 13 15 15 16 7 7 7 8 12 14 13 14 12 12 10 9 8 7 7 5 4 10 16 19 30 18 14 11 9 8 8 7 8 9 9 9 10 6 4
21 18 19 16 20 30 34 33 22 14 13 12 14 8 6 6 7 8 7 9 10 12 12 13 11 10 10 9 7 6 4 6 14 15 20 17 14 12 9 7 7 7 8 8 9 10 9 7 6
26 23 17 15 28 30 31 32 28 23 20 22 18 6 4 7 7 6 8 8 9 12 12 13 13 11 9 8 9 7 6 4 4 14 22 17 14 10 8 6 7 8 8 9 10 10 9 9 7
27 25 24 24 26 30 35 36 28 20 28 29 22 14 8 8 6 4 6 7 9 10 12 12 12 12 11 9 8 6 5 1 4 8 15 17 13 13 6 10 8 9 9 10 11 10 10 9 7
26 30 30 30 29 25 29 30 33 24 26 20 18 19 7 8 9 6 5 6 8 8 10 10 11 11 11 9 7 5 4 1 8 12 15 17 18 12 9 8 9 11 12 13 12 10 11 9 9
33 39 39 33 27 34 30 32 22 42 29 13 11 11 7 6 5 3 2 3 6 6 8 9 10 11 12 11 11 9 8 8 8 11 17 17 15 14 10 9 10 14 15 15 11 10 11 11 8
35 36 37 29 28 33 29 32 43 35 32 14 13 10 6 6 3 3 4 4 5 7 8 9 10 11 11 12 13 13 11 12 9 9 16 17 19 15 11 13 12 15 13 14 10 13 10 9 8
30 35 37 36 24 26 26 35 45 31 26 23 13 10 8 4 4 3 5 5 4 6 7 8 9 10 11 12 13 14 12 13 15 15 15 19 17 14 13 12 11 14 13 12 11 12 10 8 7
33 35 37 39 33 33 33 36 42 23 20 15 13 10 5 3 0 3 4 4 4 5 7 8 9 9 11 12 13 13 11 9 15 18 18 16 15 14 13 11 12 14 13 13 12 11 10 9 8
35 39 41 41 40 38 40 39 26 25 25 24 13 10 8 7 5 5 7 6 5 4 6 7 8 9 10 11 14 14 14 13 17 20 23 26 17 12 14 12 11 12 14 14 14 10 11 9 8
36 41 44 45 47 41 43 39 32 24 21 18 14 13 10 8 7 8 7 6 4 3 4 6 7 9 10 12 16 15 17 13 13 17 26 30 25 20 20 12 10 11 15 14 13 10 11 11 10
35 39 45 46 50 46 42 41 43 33 32 34 26 12 11 11 11 11 9 8 5 4 4 5 7 11 12 13 14 16 19 11 10 15 19 21 19 20 19 15 14 12 16 13 13 11 12 12 12
35 36 42 46 40 42 35 46 46 32 36 38 37 24 11 10 12 14 10 9 7 5 4 5 8 12 13 15 14 17 18 19 17 19 16 15 14 17 17 12 18 18 18 18 21 18 14 11 12
35 35 41 41 43 42 48 41 45 36 34 19 14 14 13 9 12 14 13 11 9 8 6 6 9 12 13 15 16 15 14 16 17 17 18 18 12 10 14 12 16 17 14 15 15 15 14 12 11
30 35 40 42 42 44 52 35 40 33 37 36 30 24 13 10 11 14 13 9 10 9 8 8 12 12 14 16 17 18 16 14 15 16 17 20 20 16 10 11 12 15 13 14 16 14 13 13 12
26 30 34 40 39 41 28 35 48 25 37 36 36 15 11 9 9 12 12 10 10 10 10 8 12 14 15 17 17 18 18 17 17 17 17 19 24 28 25 10 12 14 14 14 14 15 14 14 13
20 22 33 37 35 38 33 37 27 24 42 16 8 5 7 5 8 13 13 11 9 11 11 10 10 12 16 17 17 18 17 17 17 17 17 19 22 26 26 24 18 15 15 15 16 18 17 16 15
20 33 24 32 27 33 32 38 32 32 38 16 9 10 12 4 7 11 13 10 7 11 12 11 11 10 15 16 17 18 18 15 17 16 17 18 21 24 26 24 23 24 24 22 16 19 19 19 18
22 21 26 26 34 32 28 31 26 23 15 9 7 8 6 3 4 4 10 11 8 9 10 10 10 11 11 13 15 15 18 18 16 16 16 15 17 19 21 24 25 22 23 23 25 24 20 18 19
21 32 25 25 27 30 25 25 19 14 11 1 3 5 5 8 5 5 2 7 7 5 7 9 7 7 8 10 12 13 12 15 13 13 15 16 16 18 19 19 22 24 22 22 23 22 21 23 23
14 31 30 30 23 30 25 23 20 15 15 9 4 7 7 9 10 13 16 2 3 4 5 7 7 7 8 9 10 11 11 15 12 10 14 14 15 16 17 18 17 20 21 20 23 21 20 23 26
Wind_Direction
5 12 2 359 353 358 354 347 344 357 1 10 3 347 339 334 332 325 13 353 1 360 359 356 8 39 80 107 119 127 141 165 178 209 156 149 124 119 107 98 101 111 117 107 100 93 92 92 90
356 353 356 353 352 351 355 5 13 14 18 10 360 354 347 342 6 19 359 351 352 355 355 359 6 35 102 132 147 162 181 187 209 207 202 180 155 142 140 109 115 132 126 111 103 100 101 98 95
342 352 348 356 354 349 359 353 12 16 8 358 351 355 352 354 12 11 16 12 356 5 2 2 10 49 86 97 150 225 213 265 234 220 205 195 166 174 142 128 131 132 127 116 108 108 108 101 100
344 337 336 338 335 281 290 339 13 360 2 9 3 350 354 6 7 15 23 15 4 1 9 19 27 72 98 78 151 200 238 275 264 251 229 191 184 175 161 150 139 134 128 125 114 114 111 107 106
331 332 323 329 314 278 312 326 343 352 354 7 12 352 343 6 35 23 14 4 360 5 15 26 32 60 77 79 86 264 261 272 277 252 236 206 175 173 156 162 146 142 140 138 128 123 118 115 112
321 328 322 319 302 321 331 350 357 356 352 346 339 341 347 49 24 27 17 359 356 359 24 38 38 34 58 334 319 293 285 288 261 256 242 219 183 156 151 172 168 143 136 153 156 134 124 130 111
297 311 307 307 310 323 324 348 355 347 343 338 346 338 5 36 34 36 24 6 1 354 360 31 28 43 7 339 310 302 295 294 280 274 246 209 176 149 158 180 174 159 135 160 160 139 143 138 117
295 304 268 301 316 324 330 343 350 350 347 342 337 337 348 23 31 18 16 6 7 13 3 1 17 57 34 354 322 312 301 301 289 276 232 179 168 156 152 154 187 161 154 173 169 160 164 150 126
294 270 274 264 275 255 323 343 342 354 343 341 335 334 353 66 37 11 6 7 10 13 19 30 40 78 74 90 68 337 338 339 305 234 232 180 184 165 140 153 166 146 147 166 178 176 167 155 145
269 284 249 288 269 302 310 323 343 340 339 334 334 341 29 52 27 13 0 4 16 24 50 55 83 68 67 75 92 62 342 331 260 229 209 190 176 174 164 155 153 157 163 171 182 176 162 182 205
280 265 288 284 286 295 301 305 313 330 333 337 344 16 29 14 1 354 354 12 26 47 66 70 85 65 64 61 74 82 20 29 271 235 186 190 178 176 176 187 186 174 190 179 180 179 186 192 212
279 281 277 275 287 293 299 303 307 305 317 326 323 339 3 346 353 5 4 28 35 39 68 70 66 64 62 69 78 89 92 88 1 234 199 187 186 176 175 180 175 172 194 193 186 182 196 199 225
279 283 286 288 288 288 292 291 302 301 300 303 316 321 325 339 352 20 12 35 31 34 59 68 64 62 61 56 92 89 93 85 249 213 190 189 185 205 168 140 165 163 166 175 179 179 182 198 240
285 286 287 288 289 288 292 294 291 259 299 305 304 307 309 327 341 10 26 21 19 33 48 68 63 58 55 54 54 36 83 124 218 215 207 204 211 197 190 182 169 153 151 155 172 174 186 215 242
285 282 283 287 292 288 293 287 285 271 295 288 290 293 271 307 348 21 71 35 24 26 47 62 75 63 63 59 56 61 104 116 161 209 197 183 189 193 196 183 176 152 145 149 179 189 210 225 235
284 284 285 289 290 286 289 286 271 285 288 247 269 269 264 301 328 42 94 46 29 26 35 57 78 78 72 72 79 73 83 105 135 175 201 194 205 209 179 160 166 156 152 158 173 208 198 212 227
283 281 282 286 290 288 282 283 260 285 290 297 301 285 297 304 339 56 68 72 43 34 44 57 79 87 85 81 89 88 77 89 117 138 198 194 201 211 199 182 194 168 166 175 167 200 203 182 206
280 280 280 280 285 282 284 281 276 280 293 281 289 290 249 216 261 131 109 83 67 41 41 47 65 82 91 95 99 101 87 82 116 130 152 177 187 187 197 194 190 178 183 179 172 188 209 190 186
281 280 279 279 279 284 283 283 276 275 280 279 270 278 244 214 180 148 124 110 89 61 43 46 67 85 94 102 120 119 113 108 119 138 150 153 158 174 180 189 193 189 190 183 176 189 201 205 197
281 280 278 280 269 277 278 281 284 272 277 273 270 260 260 223 180 160 139 111 122 100 59 53 69 95 99 107 123 126 132 121 117 124 142 151 148 148 154 167 181 188 179 182 184 197 223 221 219
278 276 276 276 268 271 275 277 267 270 272 273 284 246 238 208 187 167 157 139 127 124 101 69 89 109 110 111 116 118 132 112 124 136 146 152 152 152 154 157 167 179 173 179 190 201 219 221 238
280 275 274 270 278 265 270 271 256 275 269 265 267 275 254 235 198 174 166 153 143 137 120 93 104 120 117 119 119 128 133 141 141 150 152 162 165 162 163 160 163 166 168 171 168 167 179 197 200
287 281 268 266 269 267 257 267 260 267 269 272 253 241 247 246 198 182 177 169 153 141 132 121 117 128 126 130 136 135 132 138 141 147 155 161 181 217 185 188 174 175 184 180 181 185 189 199 206
297 281 261 260 263 259 247 261 261 265 261 262 269 280 225 216 191 180 173 163 153 143 140 135 138 130 135 139 139 143 139 139 141 149 158 167 168 173 204 215 207 201 212 196 190 193 202 210 229
291 272 250 250 254 255 261 259 249 274 252 258 269 277 210 211 197 174 166 162 154 152 148 140 144 147 144 147 149 150 150 148 150 153 160 164 170 176 177 208 220 215 219 219 214 212 220 233 220
289 266 243 246 252 255 254 256 266 272 229 279 293 280 312 217 185 170 167 164 166 161 157 152 149 149 154 152 151 154 152 155 155 159 159 167 174 180 181 181 182 196 211 221 225 240 242 241 231
286 253 265 259 272 257 258 258 267 269 239 249 283 289 294 265 164 160 162 168 163 162 168 164 162 158 159 161 159 159 158 153 159 162 166 170 176 181 185 186 186 186 189 192 217 244 245 247 242
274 273 253 257 252 254 262 256 265 277 247 234 269 296 292 249 197 202 162 162 169 170 168 166 170 172 169 167 168 165 170 172 168 168 170 171 176 180 185 189 192 193 194 196 199 202 211 222 227
282 255 258 265 257 255 257 249 301 286 283 232 327 18 7 342 336 331 343 184 179 180 178 178 179 185 193 186 183 178 176 174 173 178 178 178 177 183 189 193 197 199 203 204 205 209 214 217 222
291 257 250 254 260 250 257 258 294 279 285 304 323 1 13 355 354 355 342 30 196 181 187 196 203 211 218 221 210 204 197 191 192 193 190 187 188 187 193 198 204 207 211 215 215 219 218 218 217